QPF
0.03 0.03 0.04 0.05 0.05 0.05 0.04 0.03 0.03 0.05 0.07 0.08 0.08 0.08 0.08 0.07 0.06 0.05 0.07 0.10 0.15 0.18 0.20 0.22 0.24 0.24 0.24 0.26 0.26 0.25 0.24 0.23 0.21 0.19 0.16 0.15 0.14 0.12 0.10 0.07 0.05 0.04 0.03
0.02 0.03 0.05 0.05 0.04 0.03 0.03 0.03 0.03 0.04 0.05 0.08 0.10 0.11 0.09 0.07 0.09 0.08 0.08 0.09 0.11 0.13 0.14 0.16 0.16 0.16 0.17 0.18 0.18 0.18 0.17 0.14 0.12 0.12 0.13 0.12 0.10 0.08 0.06 0.05 0.04 0.02 0.01
0.03 0.04 0.05 0.05 0.05 0.04 0.04 0.03 0.03 0.04 0.06 0.07 0.08 0.09 0.10 0.09 0.09 0.09 0.08 0.09 0.08 0.08 0.08 0.09 0.10 0.10 0.11 0.11 0.12 0.12 0.11 0.09 0.09 0.10 0.11 0.09 0.06 0.05 0.04 0.03 0.02 0.01 0.01
0.03 0.05 0.05 0.05 0.05 0.04 0.04 0.05 0.05 0.06 0.07 0.08 0.09 0.09 0.09 0.07 0.06 0.07 0.08 0.08 0.06 0.06 0.06 0.06 0.07 0.07 0.07 0.07 0.07 0.06 0.06 0.06 0.07 0.07 0.07 0.06 0.05 0.03 0.03 0.02 0.02 0.01 0.01
0.04 0.06 0.05 0.05 0.05 0.04 0.05 0.06 0.05 0.05 0.07 0.08 0.07 0.08 0.07 0.06 0.06 0.06 0.07 0.07 0.06 0.06 0.04 0.03 0.04 0.05 0.05 0.05 0.05 0.04 0.04 0.04 0.04 0.04 0.04 0.03 0.03 0.02 0.02 0.02 0.02 0.02 0.01
0.05 0.06 0.06 0.07 0.07 0.07 0.07 0.07 0.05 0.05 0.06 0.07 0.06 0.06 0.07 0.07 0.07 0.06 0.06 0.07 0.08 0.07 0.05 0.04 0.04 0.04 0.04 0.04 0.03 0.03 0.03 0.03 0.03 0.02 0.02 0.02 0.02 0.02 0.01 0.01 0.01 0.02 0.03
0.05 0.06 0.07 0.07 0.09 0.10 0.09 0.07 0.06 0.06 0.05 0.06 0.07 0.07 0.08 0.09 0.08 0.06 0.06 0.07 0.07 0.07 0.06 0.04 0.03 0.03 0.03 0.02 0.01 0.01 0.01 0.01 0.01 0.02 0.02 0.02 0.02 0.01 0.01 0.01 0.01 0.02 0.03
0.07 0.07 0.07 0.08 0.10 0.11 0.10 0.08 0.07 0.06 0.05 0.05 0.06 0.06 0.05 0.06 0.05 0.04 0.04 0.05 0.05 0.05 0.05 0.04 0.02 0.02 0.01 0.01 0.01 0.01 0.00 0.00 0.01 0.01 0.01 0.01 0.01 0.01 0.01 0.01 0.01 0.01 0.02
0.06 0.07 0.07 0.08 0.10 0.11 0.11 0.10 0.08 0.08 0.06 0.03 0.03 0.04 0.03 0.03 0.03 0.03 0.03 0.04 0.04 0.03 0.02 0.02 0.01 0.01 0.00 0.00 0.01 0.00 0.00 0.00 0.00 0.00 0.00 0.00 0.00 0.00 0.00 0.01 0.01 0.02 0.03
0.08 0.08 0.07 0.08 0.09 0.10 0.09 0.10 0.09 0.08 0.05 0.03 0.02 0.03 0.02 0.02 0.02 0.02 0.02 0.02 0.02 0.01 0.01 0.00 0.00 0.00 0.00 0.00 0.01 0.01 0.01 0.00 0.00 0.00 0.00 0.00 0.00 0.00 0.00 0.01 0.02 0.01 0.02
0.08 0.08 0.09 0.10 0.09 0.09 0.07 0.09 0.10 0.07 0.06 0.05 0.03 0.03 0.02 0.01 0.02 0.02 0.01 0.01 0.01 0.01 0.00 0.00 0.00 0.00 0.00 0.00 0.00 0.01 0.00 0.00 0.01 0.00 0.01 0.01 0.01 0.01 0.01 0.01 0.01 0.01 0.02
0.07 0.08 0.11 0.12 0.09 0.08 0.08 0.09 0.10 0.07 0.05 0.05 0.04 0.03 0.02 0.01 0.01 0.01 0.01 0.00 0.01 0.01 0.00 0.00 0.00 0.00 0.00 0.00 0.00 0.00 0.00 0.00 0.00 0.00 0.01 0.01 0.01 0.01 0.00 0.00 0.00 0.00 0.01
0.07 0.09 0.10 0.11 0.09 0.08 0.09 0.10 0.10 0.07 0.05 0.04 0.04 0.03 0.02 0.01 0.00 0.00 0.00 0.00 0.00 0.00 0.00 0.00 0.00 0.00 0.00 0.00 0.00 0.00 0.00 0.00 0.00 0.00 0.00 0.00 0.00 0.00 0.00 0.00 0.00 0.00 0.00
0.07 0.08 0.08 0.08 0.08 0.08 0.08 0.08 0.08 0.06 0.05 0.05 0.05 0.04 0.03 0.02 0.01 0.00 0.00 0.00 0.00 0.00 0.00 0.00 0.00 0.00 0.00 0.00 0.00 0.00 0.00 0.00 0.00 0.00 0.00 0.00 0.00 0.00 0.00 0.00 0.00 0.00 0.00
0.07 0.07 0.06 0.06 0.07 0.07 0.05 0.05 0.05 0.04 0.03 0.03 0.03 0.03 0.02 0.01 0.00 0.00 0.00 0.00 0.00 0.00 0.00 0.00 0.00 0.00 0.00 0.00 0.00 0.00 0.00 0.00 0.00 0.00 0.00 0.00 0.00 0.00 0.00 0.00 0.00 0.00 0.00
0.07 0.07 0.05 0.05 0.05 0.04 0.02 0.02 0.02 0.02 0.01 0.01 0.00 0.00 0.00 0.00 0.00 0.00 0.00 0.00 0.00 0.00 0.00 0.01 0.00 0.00 0.00 0.00 0.00 0.00 0.00 0.00 0.00 0.00 0.00 0.00 0.00 0.00 0.00 0.00 0.00 0.00 0.00
0.06 0.06 0.04 0.03 0.03 0.02 0.02 0.02 0.01 0.01 0.01 0.00 0.00 0.00 0.00 0.00 0.00 0.00 0.00 0.00 0.00 0.00 0.00 0.00 0.00 0.00 0.00 0.00 0.00 0.00 0.00 0.00 0.00 0.00 0.00 0.00 0.00 0.00 0.00 0.00 0.00 0.00 0.00
0.03 0.02 0.02 0.02 0.01 0.01 0.01 0.01 0.01 0.00 0.00 0.00 0.00 0.00 0.00 0.00 0.00 0.00 0.00 0.00 0.00 0.00 0.00 0.00 0.00 0.00 0.00 0.00 0.00 0.00 0.00 0.00 0.00 0.00 0.00 0.00 0.00 0.00 0.00 0.00 0.00 0.00 0.00
0.02 0.01 0.01 0.01 0.01 0.01 0.01 0.00 0.00 0.00 0.00 0.00 0.00 0.00 0.00 0.00 0.00 0.00 0.00 0.00 0.00 0.00 0.00 0.00 0.00 0.00 0.00 0.00 0.00 0.00 0.00 0.00 0.00 0.00 0.00 0.00 0.00 0.00 0.00 0.00 0.00 0.00 0.00
0.01 0.01 0.01 0.00 0.00 0.00 0.00 0.00 0.00 0.00 0.00 0.00 0.00 0.00 0.00 0.00 0.00 0.00 0.00 0.00 0.00 0.00 0.00 0.00 0.00 0.00 0.00 0.00 0.00 0.00 0.00 0.00 0.00 0.00 0.00 0.00 0.00 0.00 0.00 0.00 0.00 0.00 0.00
0.00 0.00 0.00 0.00 0.00 0.00 0.00 0.00 0.00 0.00 0.00 0.00 0.00 0.00 0.00 0.00 0.00 0.00 0.00 0.00 0.00 0.00 0.00 0.00 0.00 0.00 0.00 0.00 0.00 0.00 0.00 0.00 0.00 0.00 0.00 0.00 0.00 0.00 0.00 0.00 0.00 0.00 0.00
0.00 0.00 0.00 0.00 0.00 0.00 0.00 0.00 0.00 0.00 0.00 0.00 0.00 0.00 0.00 0.00 0.00 0.00 0.00 0.00 0.00 0.00 0.00 0.00 0.00 0.00 0.00 0.00 0.00 0.00 0.00 0.00 0.00 0.00 0.00 0.00 0.00 0.00 0.00 0.00 0.00 0.00 0.00
0.00 0.00 0.00 0.00 0.00 0.00 0.00 0.00 0.00 0.00 0.00 0.00 0.00 0.00 0.00 0.00 0.00 0.00 0.00 0.00 0.00 0.00 0.00 0.00 0.00 0.00 0.00 0.00 0.00 0.00 0.00 0.00 0.00 0.00 0.00 0.00 0.00 0.00 0.00 0.00 0.00 0.00 0.00
0.00 0.00 0.00 0.00 0.00 0.00 0.00 0.00 0.00 0.00 0.00 0.00 0.00 0.00 0.00 0.00 0.00 0.00 0.00 0.00 0.00 0.00 0.00 0.00 0.00 0.00 0.00 0.00 0.00 0.00 0.00 0.00 0.00 0.00 0.00 0.00 0.00 0.00 0.00 0.00 0.00 0.00 0.00
0.00 0.00 0.00 0.00 0.00 0.00 0.00 0.00 0.00 0.00 0.00 0.00 0.00 0.00 0.00 0.00 0.00 0.00 0.00 0.00 0.00 0.00 0.00 0.00 0.00 0.00 0.00 0.00 0.00 0.00 0.00 0.00 0.00 0.00 0.00 0.00 0.00 0.00 0.00 0.00 0.00 0.00 0.00
0.00 0.00 0.00 0.00 0.00 0.00 0.00 0.00 0.00 0.00 0.00 0.00 0.00 0.00 0.00 0.00 0.00 0.00 0.00 0.00 0.00 0.00 0.00 0.00 0.00 0.00 0.00 0.00 0.00 0.00 0.00 0.00 0.00 0.00 0.00 0.00 0.00 0.00 0.00 0.00 0.00 0.00 0.00
MSLP
1013.45 1013.36 1013.39 1013.55 1013.80 1014.13 1014.49 1014.83 1015.13 1015.36 1015.49 1015.52 1015.43 1015.24 1014.96 1014.63 1014.30 1014.01 1013.82 1013.79 1013.96 1014.33 1014.92 1015.69 1016.60 1017.60 1018.63 1019.62 1020.55 1021.36 1022.07 1022.66 1023.15 1023.56 1023.92 1024.23 1024.51 1024.76 1025.00 1025.22 1025.42 1025.60 1025.79
1014.07 1013.99 1014.03 1014.17 1014.42 1014.72 1015.05 1015.35 1015.61 1015.78 1015.86 1015.84 1015.72 1015.51 1015.25 1014.97 1014.72 1014.53 1014.45 1014.52 1014.77 1015.19 1015.78 1016.50 1017.32 1018.20 1019.08 1019.91 1020.68 1021.36 1021.95 1022.46 1022.89 1023.27 1023.61 1023.92 1024.20 1024.45 1024.68 1024.88 1025.05 1025.21 1025.35
1014.75 1014.70 1014.75 1014.89 1015.11 1015.37 1015.64 1015.89 1016.07 1016.18 1016.20 1016.14 1016.00 1015.81 1015.59 1015.39 1015.24 1015.17 1015.21 1015.39 1015.71 1016.17 1016.75 1017.42 1018.14 1018.87 1019.58 1020.25 1020.85 1021.39 1021.86 1022.28 1022.67 1023.02 1023.36 1023.68 1023.97 1024.23 1024.46 1024.65 1024.80 1024.93 1025.03
1015.45 1015.44 1015.50 1015.63 1015.82 1016.03 1016.24 1016.41 1016.53 1016.58 1016.55 1016.46 1016.31 1016.15 1015.99 1015.88 1015.83 1015.88 1016.03 1016.31 1016.70 1017.18 1017.73 1018.33 1018.94 1019.53 1020.08 1020.59 1021.04 1021.45 1021.82 1022.18 1022.53 1022.88 1023.23 1023.57 1023.89 1024.17 1024.41 1024.59 1024.73 1024.82 1024.89
1016.11 1016.15 1016.23 1016.35 1016.50 1016.67 1016.81 1016.92 1016.98 1016.98 1016.92 1016.82 1016.69 1016.57 1016.48 1016.44 1016.49 1016.63 1016.88 1017.22 1017.64 1018.13 1018.64 1019.17 1019.67 1020.13 1020.55 1020.92 1021.25 1021.57 1021.87 1022.19 1022.53 1022.89 1023.26 1023.63 1023.98 1024.28 1024.53 1024.72 1024.84 1024.91 1024.93
1016.71 1016.78 1016.87 1016.99 1017.12 1017.25 1017.35 1017.42 1017.44 1017.41 1017.35 1017.25 1017.15 1017.08 1017.05 1017.08 1017.20 1017.41 1017.71 1018.08 1018.51 1018.98 1019.44 1019.89 1020.31 1020.67 1020.99 1021.26 1021.51 1021.77 1022.04 1022.34 1022.68 1023.06 1023.45 1023.85 1024.22 1024.55 1024.81 1024.99 1025.10 1025.14 1025.12
1017.22 1017.32 1017.43 1017.55 1017.67 1017.78 1017.86 1017.91 1017.93 1017.90 1017.85 1017.79 1017.73 1017.70 1017.71 1017.80 1017.96 1018.19 1018.51 1018.88 1019.30 1019.72 1020.14 1020.53 1020.87 1021.16 1021.41 1021.63 1021.85 1022.07 1022.33 1022.63 1022.98 1023.37 1023.78 1024.19 1024.58 1024.90 1025.16 1025.33 1025.42 1025.43 1025.37
1017.65 1017.79 1017.92 1018.05 1018.18 1018.29 1018.38 1018.44 1018.48 1018.48 1018.47 1018.44 1018.42 1018.43 1018.48 1018.58 1018.75 1018.99 1019.29 1019.64 1020.01 1020.39 1020.76 1021.10 1021.40 1021.65 1021.87 1022.07 1022.27 1022.49 1022.75 1023.05 1023.40 1023.78 1024.19 1024.58 1024.95 1025.26 1025.49 1025.63 1025.69 1025.67 1025.58
1018.07 1018.23 1018.39 1018.55 1018.69 1018.83 1018.95 1019.05 1019.12 1019.17 1019.20 1019.22 1019.24 1019.27 1019.33 1019.44 1019.59 1019.81 1020.07 1020.37 1020.70 1021.04 1021.37 1021.67 1021.94 1022.18 1022.39 1022.59 1022.79 1023.01 1023.26 1023.55 1023.88 1024.23 1024.60 1024.95 1025.26 1025.52 1025.70 1025.80 1025.83 1025.78 1025.67
1018.51 1018.71 1018.90 1019.09 1019.27 1019.45 1019.61 1019.76 1019.88 1019.98 1020.06 1020.11 1020.16 1020.20 1020.26 1020.35 1020.48 1020.65 1020.86 1021.11 1021.39 1021.69 1021.98 1022.27 1022.53 1022.76 1022.98 1023.18 1023.38 1023.59 1023.82 1024.08 1024.35 1024.65 1024.94 1025.21 1025.45 1025.63 1025.75 1025.81 1025.79 1025.72 1025.59
1019.04 1019.27 1019.50 1019.72 1019.95 1020.17 1020.38 1020.58 1020.75 1020.89 1021.01 1021.09 1021.15 1021.19 1021.24 1021.30 1021.39 1021.51 1021.67 1021.87 1022.10 1022.36 1022.63 1022.89 1023.15 1023.38 1023.59 1023.79 1023.98 1024.16 1024.35 1024.55 1024.76 1024.97 1025.17 1025.35 1025.49 1025.59 1025.64 1025.64 1025.59 1025.50 1025.37
1019.68 1019.94 1020.20 1020.46 1020.73 1020.99 1021.24 1021.48 1021.69 1021.87 1022.00 1022.10 1022.16 1022.20 1022.22 1022.25 1022.29 1022.36 1022.47 1022.63 1022.82 1023.04 1023.28 1023.52 1023.76 1023.98 1024.18 1024.36 1024.52 1024.67 1024.80 1024.93 1025.05 1025.17 1025.27 1025.35 1025.40 1025.42 1025.41 1025.36 1025.28 1025.18 1025.06
1020.40 1020.69 1020.97 1021.27 1021.56 1021.86 1022.14 1022.40 1022.64 1022.83 1022.98 1023.08 1023.14 1023.15 1023.15 1023.14 1023.14 1023.17 1023.24 1023.35 1023.50 1023.68 1023.89 1024.10 1024.31 1024.51 1024.68 1024.82 1024.94 1025.03 1025.11 1025.17 1025.21 1025.24 1025.26 1025.25 1025.23 1025.19 1025.13 1025.05 1024.95 1024.84 1024.73
1021.15 1021.45 1021.76 1022.07 1022.38 1022.69 1022.99 1023.27 1023.51 1023.71 1023.86 1023.95 1023.99 1023.99 1023.97 1023.93 1023.89 1023.89 1023.91 1023.98 1024.08 1024.23 1024.39 1024.56 1024.73 1024.89 1025.02 1025.12 1025.19 1025.23 1025.25 1025.25 1025.24 1025.21 1025.17 1025.11 1025.05 1024.97 1024.87 1024.77 1024.67 1024.57 1024.47
1021.84 1022.15 1022.46 1022.77 1023.09 1023.40 1023.70 1023.98 1024.22 1024.42 1024.56 1024.64 1024.67 1024.66 1024.61 1024.55 1024.49 1024.45 1024.44 1024.46 1024.52 1024.62 1024.73 1024.85 1024.97 1025.07 1025.16 1025.22 1025.25 1025.25 1025.24 1025.21 1025.17 1025.11 1025.05 1024.98 1024.90 1024.81 1024.71 1024.61 1024.50 1024.40 1024.30
1022.38 1022.68 1022.98 1023.29 1023.59 1023.90 1024.19 1024.46 1024.69 1024.88 1025.02 1025.10 1025.12 1025.10 1025.05 1024.97 1024.90 1024.83 1024.79 1024.77 1024.79 1024.83 1024.88 1024.95 1025.01 1025.07 1025.11 1025.13 1025.14 1025.13 1025.11 1025.09 1025.05 1025.01 1024.97 1024.91 1024.85 1024.77 1024.67 1024.57 1024.46 1024.35 1024.24
1022.71 1022.99 1023.27 1023.56 1023.85 1024.14 1024.42 1024.67 1024.90 1025.08 1025.22 1025.30 1025.33 1025.31 1025.26 1025.19 1025.10 1025.02 1024.95 1024.90 1024.87 1024.87 1024.87 1024.89 1024.90 1024.92 1024.93 1024.93 1024.94 1024.94 1024.94 1024.95 1024.95 1024.95 1024.95 1024.93 1024.89 1024.83 1024.75 1024.64 1024.52 1024.38 1024.24
1022.80 1023.05 1023.31 1023.58 1023.84 1024.11 1024.38 1024.62 1024.84 1025.03 1025.17 1025.27 1025.31 1025.31 1025.28 1025.22 1025.14 1025.05 1024.96 1024.89 1024.83 1024.78 1024.74 1024.72 1024.70 1024.69 1024.69 1024.70 1024.72 1024.76 1024.80 1024.85 1024.91 1024.96 1025.01 1025.03 1025.02 1024.97 1024.89 1024.77 1024.62 1024.45 1024.26
1022.69 1022.91 1023.14 1023.37 1023.62 1023.86 1024.11 1024.35 1024.57 1024.77 1024.93 1025.04 1025.12 1025.15 1025.14 1025.10 1025.03 1024.95 1024.87 1024.78 1024.70 1024.63 1024.57 1024.52 1024.49 1024.48 1024.49 1024.52 1024.57 1024.65 1024.74 1024.85 1024.96 1025.06 1025.15 1025.19 1025.20 1025.15 1025.06 1024.91 1024.72 1024.50 1024.26
1022.43 1022.62 1022.81 1023.02 1023.23 1023.45 1023.69 1023.92 1024.14 1024.35 1024.53 1024.68 1024.79 1024.86 1024.89 1024.88 1024.84 1024.78 1024.71 1024.62 1024.54 1024.46 1024.40 1024.36 1024.33 1024.34 1024.37 1024.44 1024.54 1024.66 1024.80 1024.95 1025.10 1025.23 1025.33 1025.39 1025.39 1025.32 1025.19 1025.01 1024.78 1024.51 1024.21
1022.12 1022.27 1022.42 1022.59 1022.77 1022.97 1023.18 1023.41 1023.63 1023.85 1024.06 1024.24 1024.39 1024.49 1024.56 1024.60 1024.59 1024.57 1024.52 1024.46 1024.39 1024.33 1024.29 1024.26 1024.27 1024.30 1024.37 1024.48 1024.62 1024.78 1024.96 1025.14 1025.30 1025.44 1025.53 1025.57 1025.54 1025.44 1025.27 1025.04 1024.77 1024.45 1024.11
1021.82 1021.93 1022.04 1022.16 1022.31 1022.47 1022.66 1022.87 1023.10 1023.33 1023.55 1023.76 1023.94 1024.09 1024.20 1024.28 1024.32 1024.33 1024.32 1024.29 1024.26 1024.23 1024.22 1024.23 1024.27 1024.35 1024.46 1024.61 1024.78 1024.97 1025.17 1025.35 1025.51 1025.63 1025.70 1025.70 1025.63 1025.48 1025.27 1025.01 1024.69 1024.35 1023.99
1021.59 1021.65 1021.71 1021.79 1021.89 1022.02 1022.18 1022.37 1022.58 1022.81 1023.04 1023.27 1023.48 1023.66 1023.81 1023.93 1024.01 1024.06 1024.09 1024.10 1024.11 1024.13 1024.16 1024.21 1024.30 1024.42 1024.57 1024.75 1024.95 1025.15 1025.35 1025.53 1025.67 1025.76 1025.78 1025.74 1025.62 1025.44 1025.19 1024.90 1024.57 1024.23 1023.87
1021.43 1021.45 1021.47 1021.50 1021.55 1021.64 1021.76 1021.92 1022.11 1022.32 1022.55 1022.79 1023.01 1023.22 1023.40 1023.55 1023.66 1023.75 1023.82 1023.87 1023.92 1023.97 1024.05 1024.14 1024.27 1024.42 1024.60 1024.81 1025.02 1025.23 1025.43 1025.59 1025.71 1025.76 1025.75 1025.67 1025.51 1025.30 1025.04 1024.74 1024.41 1024.08 1023.75
1021.32 1021.31 1021.28 1021.27 1021.28 1021.32 1021.40 1021.52 1021.68 1021.88 1022.10 1022.32 1022.55 1022.77 1022.96 1023.13 1023.27 1023.38 1023.48 1023.56 1023.64 1023.72 1023.83 1023.95 1024.11 1024.29 1024.50 1024.72 1024.94 1025.15 1025.34 1025.49 1025.58 1025.61 1025.57 1025.47 1025.30 1025.08 1024.81 1024.52 1024.21 1023.90 1023.60
1021.22 1021.17 1021.12 1021.07 1021.04 1021.04 1021.08 1021.17 1021.30 1021.47 1021.67 1021.88 1022.10 1022.31 1022.51 1022.68 1022.83 1022.96 1023.06 1023.16 1023.25 1023.35 1023.47 1023.62 1023.79 1023.98 1024.20 1024.43 1024.66 1024.87 1025.06 1025.20 1025.28 1025.30 1025.26 1025.15 1024.97 1024.75 1024.50 1024.22 1023.93 1023.65 1023.37
Thickness
5625 5624 5623 5623 5623 5623 5623 5623 5623 5624 5625 5626 5627 5628 5629 5630 5632 5633 5634 5635 5637 5637 5639 5639 5638 5638 5637 5635 5633 5631 5627 5624 5615 5604 5600 5598 5596 5593 5588 5586 5583 5579 5576
5614 5612 5611 5611 5611 5611 5610 5610 5612 5613 5614 5615 5616 5617 5618 5619 5621 5623 5624 5625 5627 5627 5627 5628 5628 5627 5626 5625 5623 5620 5617 5615 5610 5600 5594 5591 5588 5585 5582 5579 5576 5573 5570
5602 5600 5599 5598 5598 5598 5598 5599 5600 5601 5602 5604 5605 5606 5608 5609 5611 5613 5614 5615 5616 5617 5617 5617 5617 5617 5616 5614 5612 5610 5608 5605 5601 5595 5588 5584 5581 5579 5575 5573 5571 5568 5565
5589 5588 5587 5586 5586 5586 5587 5588 5588 5590 5591 5592 5594 5595 5597 5598 5600 5602 5604 5605 5606 5607 5608 5607 5607 5607 5607 5606 5604 5602 5600 5596 5592 5587 5582 5577 5574 5571 5569 5566 5564 5562 5560
5578 5576 5575 5575 5575 5575 5576 5577 5578 5579 5580 5582 5583 5585 5586 5587 5589 5592 5594 5596 5596 5597 5597 5597 5596 5597 5597 5598 5597 5594 5592 5589 5584 5580 5575 5571 5567 5564 5562 5561 5558 5556 5554
5566 5565 5564 5564 5564 5564 5565 5566 5568 5568 5569 5572 5573 5574 5575 5576 5578 5582 5585 5586 5586 5586 5586 5586 5586 5586 5586 5586 5585 5584 5583 5581 5577 5574 5569 5565 5561 5559 5557 5555 5551 5548 5544
5555 5554 5553 5553 5554 5554 5555 5556 5557 5558 5559 5561 5562 5563 5564 5565 5568 5571 5574 5575 5576 5577 5577 5578 5578 5577 5577 5576 5575 5574 5573 5572 5570 5568 5562 5558 5555 5553 5551 5548 5545 5541 5538
5545 5544 5543 5544 5544 5544 5546 5546 5548 5549 5550 5552 5553 5554 5555 5555 5558 5561 5564 5566 5566 5567 5567 5567 5567 5566 5566 5567 5566 5564 5562 5560 5560 5558 5554 5551 5549 5546 5544 5541 5539 5536 5535
5536 5535 5535 5535 5536 5537 5538 5539 5540 5541 5543 5544 5545 5546 5547 5547 5550 5553 5555 5556 5556 5556 5556 5556 5557 5556 5556 5558 5557 5555 5552 5550 5549 5547 5545 5543 5541 5539 5536 5534 5532 5529 5526
5528 5528 5528 5528 5529 5530 5531 5532 5533 5535 5536 5538 5539 5540 5541 5541 5542 5545 5549 5549 5549 5548 5547 5547 5546 5547 5548 5548 5548 5547 5544 5542 5541 5539 5537 5536 5534 5532 5530 5528 5526 5523 5521
5522 5522 5521 5522 5524 5525 5526 5527 5528 5529 5530 5532 5533 5534 5535 5535 5536 5539 5542 5543 5544 5543 5541 5539 5538 5539 5539 5540 5540 5538 5535 5535 5535 5534 5532 5530 5528 5526 5524 5523 5522 5519 5516
5517 5517 5516 5517 5519 5520 5521 5522 5524 5525 5526 5527 5529 5529 5530 5531 5531 5533 5536 5537 5538 5537 5534 5532 5530 5532 5532 5532 5532 5531 5531 5530 5530 5529 5527 5524 5523 5521 5520 5519 5518 5517 5516
5514 5513 5513 5513 5514 5515 5517 5518 5520 5522 5524 5525 5526 5526 5526 5526 5526 5528 5529 5530 5530 5529 5527 5526 5526 5526 5526 5527 5527 5527 5527 5527 5526 5524 5522 5520 5520 5519 5518 5517 5516 5515 5515
5511 5510 5510 5511 5511 5512 5514 5516 5517 5518 5520 5522 5523 5523 5523 5522 5522 5522 5523 5523 5523 5524 5523 5522 5523 5523 5523 5523 5523 5524 5524 5523 5522 5520 5519 5519 5518 5517 5516 5516 5514 5514 5513
5509 5509 5509 5509 5510 5509 5509 5508 5510 5510 5513 5517 5519 5521 5520 5517 5513 5515 5519 5519 5519 5518 5519 5521 5521 5521 5521 5522 5522 5522 5521 5520 5519 5518 5517 5516 5516 5516 5515 5515 5514 5513 5512
5509 5509 5510 5511 5511 5511 5510 5507 5505 5508 5510 5513 5514 5515 5513 5513 5513 5514 5516 5516 5516 5517 5518 5520 5522 5522 5522 5522 5522 5521 5520 5518 5517 5517 5516 5515 5514 5514 5514 5514 5514 5513 5512
5511 5511 5512 5513 5513 5514 5514 5512 5510 5507 5508 5509 5511 5512 5512 5512 5513 5513 5514 5515 5517 5517 5519 5522 5522 5522 5523 5523 5522 5521 5519 5518 5516 5516 5515 5514 5514 5513 5513 5513 5513 5512 5512
5514 5513 5515 5516 5517 5518 5518 5518 5517 5515 5513 5510 5509 5510 5511 5512 5513 5513 5514 5515 5519 5521 5523 5524 5524 5524 5523 5523 5522 5520 5519 5518 5517 5516 5515 5514 5513 5513 5513 5512 5513 5512 5512
5517 5518 5519 5520 5521 5522 5523 5523 5523 5521 5519 5517 5514 5513 5513 5514 5514 5515 5515 5517 5523 5526 5527 5527 5526 5526 5525 5523 5523 5521 5520 5519 5518 5516 5515 5515 5514 5513 5513 5513 5513 5513 5512
5520 5520 5522 5525 5526 5527 5527 5527 5527 5526 5524 5523 5522 5521 5519 5519 5521 5523 5523 5526 5529 5530 5531 5530 5528 5527 5527 5526 5525 5524 5523 5521 5520 5519 5518 5517 5516 5515 5515 5515 5514 5514 5514
5526 5525 5524 5528 5530 5532 5532 5532 5532 5531 5530 5530 5530 5528 5525 5528 5530 5532 5533 5533 5533 5533 5532 5532 5532 5532 5530 5529 5528 5527 5526 5525 5523 5522 5520 5519 5518 5517 5517 5517 5517 5517 5517
5532 5532 5532 5534 5535 5536 5536 5537 5537 5537 5537 5536 5534 5534 5533 5534 5538 5539 5539 5537 5537 5536 5535 5535 5536 5535 5533 5532 5530 5529 5528 5527 5526 5523 5522 5521 5520 5520 5520 5519 5519 5518 5518
5538 5539 5539 5540 5540 5538 5539 5542 5543 5544 5544 5544 5543 5542 5541 5542 5543 5543 5543 5541 5540 5539 5539 5538 5537 5537 5535 5533 5532 5530 5530 5528 5526 5524 5522 5521 5521 5521 5521 5520 5520 5519 5519
5545 5546 5545 5545 5545 5545 5547 5548 5549 5550 5551 5551 5551 5550 5549 5548 5548 5548 5547 5546 5545 5544 5543 5542 5541 5540 5538 5536 5534 5533 5531 5529 5527 5525 5523 5522 5521 5521 5521 5521 5521 5521 5520
5552 5552 5552 5552 5552 5553 5554 5555 5556 5557 5557 5557 5557 5557 5557 5556 5555 5554 5553 5552 5551 5550 5549 5547 5546 5545 5543 5541 5539 5536 5534 5532 5529 5527 5525 5523 5523 5522 5522 5522 5522 5521 5520
5558 5559 5559 5559 5559 5560 5560 5561 5562 5563 5564 5564 5564 5563 5563 5563 5562 5561 5560 5558 5557 5556 5555 5554 5553 5551 5548 5546 5544 5541 5539 5536 5534 5531 5528 5526 5525 5524 5523 5523 5522 5521 5521